EA3IR Weather Reports


time (UTC)temp
F
wind
direction
speed
knots
gust
knots
rain 1hr
in
rain 24hr
in
rain mn
in
humidity
%
barometer
mb
20260507140120 66 70 0.9 2.6 0.00 0.57 0.00 67 1013.6
20260507135120 66 70 0.9 2.6 0.00 0.57 0.00 67 1013.6
20260507134620 66 70 0.9 2.6 0.00 0.57 0.00 67 1013.6
20260507134120 66 70 0.9 2.6 0.00 0.57 0.00 67 1013.6
20260507132619 66 70 0.9 2.6 0.00 0.57 0.00 67 1013.6
20260507132120 66 70 0.9 2.6 0.00 0.57 0.00 67 1013.6
20260507131620 66 70 0.9 2.6 0.00 0.57 0.00 67 1013.6
20260507131120 66 70 0.9 2.6 0.00 0.57 0.00 67 1013.6
20260507130620 66 70 0.9 2.6 0.00 0.57 0.00 67 1013.6
20260507130120 66 70 0.9 2.6 0.00 0.57 0.00 67 1013.6
20260507125620 66 70 0.9 2.6 0.00 0.57 0.00 67 1013.6
20260507125120 66 70 0.9 2.6 0.00 0.57 0.00 67 1013.6
20260507124620 66 70 0.9 2.6 0.00 0.57 0.00 67 1013.6
20260507124120 66 70 0.9 2.6 0.00 0.57 0.00 67 1013.6
20260507123620 66 70 0.9 2.6 0.00 0.57 0.00 67 1013.6
20260507123120 66 70 0.9 2.6 0.00 0.57 0.00 67 1013.6
20260507122620 66 70 0.9 2.6 0.00 0.57 0.00 67 1013.6
20260507122121 66 70 0.9 2.6 0.00 0.57 0.00 67 1013.6
20260507120620 66 70 0.9 2.6 0.00 0.57 0.00 67 1013.6
20260507120120 66 70 0.9 2.6 0.00 0.57 0.00 67 1013.6
20260507115620 66 70 0.9 2.6 0.00 0.57 0.00 67 1013.6
20260507115121 66 70 0.9 2.6 0.00 0.57 0.00 67 1013.6
20260507114120 66 70 0.9 2.6 0.00 0.57 0.00 67 1013.6
20260507113620 66 70 0.9 2.6 0.00 0.57 0.00 67 1013.6
20260507113121 66 70 0.9 2.6 0.00 0.57 0.00 67 1013.6
20260507112619 66 70 0.9 2.6 0.00 0.57 0.00 67 1013.6
20260507111619 66 70 0.9 2.6 0.00 0.57 0.00 67 1013.6
20260507111122 66 70 0.9 2.6 0.00 0.57 0.00 67 1013.6
20260507110620 66 70 0.9 2.6 0.00 0.57 0.00 67 1013.6
20260507110120 66 70 0.9 2.6 0.00 0.57 0.00 67 1013.6
20260507105620 66 70 0.9 2.6 0.00 0.57 0.00 67 1013.6
20260507105120 66 70 0.9 2.6 0.00 0.57 0.00 67 1013.6
20260507104120 66 70 0.9 2.6 0.00 0.57 0.00 67 1013.6
20260507102620 66 70 0.9 2.6 0.00 0.57 0.00 67 1013.6
20260507102120 66 70 0.9 2.6 0.00 0.57 0.00 67 1013.6
20260507101620 66 70 0.9 2.6 0.00 0.57 0.00 67 1013.6
20260507100620 66 70 0.9 2.6 0.00 0.57 0.00 67 1013.6
20260507100120 66 70 0.9 2.6 0.00 0.57 0.00 67 1013.6
20260507095620 66 70 0.9 2.6 0.00 0.57 0.00 67 1013.6
20260507095120 66 70 0.9 2.6 0.00 0.57 0.00 67 1013.6
20260507094620 66 70 0.9 2.6 0.00 0.57 0.00 67 1013.6
20260507094120 66 70 0.9 2.6 0.00 0.57 0.00 67 1013.6
20260507093620 66 70 0.9 2.6 0.00 0.57 0.00 67 1013.6
20260507093120 66 70 0.9 2.6 0.00 0.57 0.00 67 1013.6
20260507092120 66 70 0.9 2.6 0.00 0.57 0.00 67 1013.6
20260507091620 66 70 0.9 2.6 0.00 0.57 0.00 67 1013.6
20260507091120 66 70 0.9 2.6 0.00 0.57 0.00 67 1013.6
20260507090620 65 76 1.7 3.5 0.00 0.59 0.02 64 1013.6
20260507090121 65 205 1.7 3.5 0.00 0.59 0.02 67 1013.6
20260507085120 66 140 0.9 2.6 0.00 0.59 0.02 68 1013.7
20260507084619 65 107 0.9 3.5 0.00 0.59 0.02 68 1013.7
20260507083620 65 72 1.7 5.2 0.00 0.59 0.02 69 1013.8
20260507082620 64 100 0.9 1.7 0.00 0.59 0.02 70 1013.9
20260507082120 64 74 0.9 3.5 0.00 0.59 0.02 71 1013.9
20260507081620 63 76 1.7 3.5 0.00 0.59 0.02 72 1014.0
20260507081120 63 107 1.7 5.2 0.00 0.59 0.02 71 1014.1
20260507080120 63 111 1.7 2.6 0.00 0.59 0.02 71 1014.1
20260507075620 63 129 1.7 4.3 0.00 0.59 0.02 73 1014.1
20260507074619 63 41 0.9 3.5 0.00 0.59 0.02 72 1013.9
20260507074120 63 20 0.9 2.6 0.00 0.59 0.02 74 1013.9
20260507073120 62 20 0.9 3.5 0.00 0.59 0.02 75 1013.9
20260507072620 62 20 0.9 2.6 0.00 0.59 0.02 77 1013.9
20260507072120 62 20 0.9 1.7 0.00 0.59 0.02 80 1013.9
20260507071620 61 20 1.7 2.6 0.00 0.59 0.02 78 1013.8
20260507071121 61 20 0.9 2.6 0.00 0.59 0.02 82 1013.7
20260507070620 60 20 0.9 2.6 0.00 0.59 0.02 82 1013.7
20260507070120 60 20 0.9 2.6 0.00 0.59 0.02 82 1013.7
20260507065619 60 20 0.9 2.6 0.00 0.59 0.02 82 1013.8
20260507064619 60 20 0.9 1.7 0.02 0.59 0.02 83 1013.7
20260507064120 59 20 0.9 1.7 0.02 0.59 0.02 84 1013.7
20260507063619 59 20 0.9 1.7 0.02 0.59 0.02 85 1013.7
20260507063120 58 11 0.9 3.5 0.02 0.59 0.02 87 1013.6
20260507062619 58 263 0.0 0.9 0.02 0.59 0.02 88 1013.6
20260507062120 57 0 0.0 0.0 0.02 0.59 0.02 89 1013.6
20260507061619 56 262 0.9 0.9 0.02 0.59 0.02 89 1013.5
20260507061120 56 260 0.0 1.7 0.02 0.59 0.02 89 1013.4
20260507060619 55 260 0.0 0.9 0.02 0.59 0.02 90 1013.3
20260507060121 55 0 0.0 0.0 0.02 0.59 0.02 91 1013.4
20260507055620 54 261 0.0 0.9 0.02 0.59 0.02 91 1013.4
20260507055120 53 261 0.0 0.9 0.00 0.57 0.00 90 1013.3
20260507054620 53 261 0.0 0.9 0.00 0.57 0.00 91 1013.3
20260507054120 53 261 0.0 0.9 0.00 0.57 0.00 90 1013.3
20260507053620 52 0 0.0 0.0 0.00 0.57 0.00 90 1013.3
20260507053119 52 261 0.0 0.9 0.00 0.57 0.00 90 1013.3
20260507052620 52 261 0.0 0.9 0.00 0.57 0.00 90 1013.3
20260507052120 52 261 0.0 0.9 0.00 0.57 0.00 90 1013.2
20260507051620 52 261 0.0 1.7 0.00 0.57 0.00 90 1013.2
20260507051119 52 0 0.0 0.0 0.00 0.57 0.00 90 1013.2
20260507050619 52 261 0.0 0.9 0.00 0.57 0.00 90 1013.2
20260507050121 51 0 0.9 0.0 0.00 0.57 0.00 90 1013.1
20260507045120 51 264 0.9 1.7 0.00 0.57 0.00 90 1013.0
20260507044619 51 308 0.9 1.7 0.00 0.57 0.00 90 1013.1
20260507043619 51 0 0.0 0.0 0.00 0.57 0.00 90 1013.1
20260507042619 51 310 0.0 0.9 0.00 0.57 0.00 90 1013.0
20260507041619 52 309 0.0 0.9 0.00 0.57 0.00 90 1013.0
20260507040619 52 0 0.0 0.0 0.00 0.57 0.00 89 1013.0
20260507040120 52 309 0.0 0.9 0.00 0.57 0.00 90 1013.0
20260507035620 52 309 0.0 0.9 0.00 0.57 0.00 90 1012.9
20260507034620 52 310 0.0 0.9 0.00 0.57 0.00 90 1012.9
20260507033620 53 333 0.9 2.6 0.00 0.57 0.00 90 1012.9
20260507033120 53 19 0.9 1.7 0.00 0.57 0.00 90 1012.9
20260507032620 53 19 0.0 1.7 0.00 0.57 0.00 90 1012.8
20260507032120 53 0 0.0 0.0 0.00 0.57 0.00 90 1012.9
20260507031620 53 0 0.0 0.0 0.00 0.57 0.00 90 1012.8
20260507031121 53 19 0.0 0.9 0.00 0.57 0.00 90 1012.8
20260507030120 53 19 0.9 0.9 0.00 0.57 0.00 90 1012.9
20260507025619 54 249 0.9 1.7 0.00 0.57 0.00 90 1012.9
20260507025120 54 250 1.7 2.6 0.00 0.57 0.00 90 1012.9
20260507024620 54 249 2.6 3.5 0.00 0.57 0.00 90 1012.9
20260507024120 54 225 2.6 4.3 0.00 0.57 0.00 90 1013.0
20260507023619 54 220 2.6 4.3 0.00 0.57 0.00 90 1012.9
20260507023121 53 303 1.7 2.6 0.00 0.57 0.00 90 1012.9
20260507022619 54 302 1.7 2.6 0.00 0.57 0.00 90 1013.0
20260507022119 54 303 0.9 1.7 0.00 0.57 0.00 90 1013.0
20260507021619 54 302 0.9 1.7 0.00 0.57 0.00 90 1013.0
20260507021120 54 302 0.9 1.7 0.00 0.57 0.00 90 1013.0
20260507020620 54 303 0.0 0.9 0.00 0.57 0.00 90 1012.9
20260507020120 54 302 0.0 0.9 0.00 0.57 0.00 90 1013.0
20260507015619 54 302 0.0 0.9 0.00 0.57 0.00 90 1012.9
20260507015119 54 0 0.0 0.0 0.00 0.57 0.00 90 1012.9
20260507014620 54 0 0.0 0.0 0.00 0.57 0.00 90 1012.9
20260507014119 55 302 0.0 0.9 0.00 0.57 0.00 90 1013.1
20260507013620 55 0 0.0 0.0 0.00 0.57 0.00 90 1013.1
20260507013119 55 0 0.0 0.0 0.00 0.57 0.00 90 1013.2
20260507012619 55 0 0.0 0.0 0.00 0.57 0.00 90 1013.2
20260507012121 55 302 0.0 0.9 0.00 0.57 0.00 90 1013.3
20260507011620 55 303 0.0 0.9 0.00 0.57 0.00 90 1013.3
20260507011120 55 0 0.0 0.0 0.00 0.57 0.00 90 1013.4
20260507010619 55 0 0.0 0.0 0.00 0.57 0.00 90 1013.4
20260507010120 55 302 0.0 0.9 0.00 0.57 0.00 90 1013.4
20260507004621 55 302 0.0 0.9 0.00 0.57 0.00 90 1013.5
20260507004120 55 0 0.0 0.0 0.00 0.57 0.00 90 1013.6
20260507003120 55 302 0.0 0.9 0.00 0.57 0.00 90 1013.7
20260507002119 55 0 0.0 0.0 0.00 0.57 0.00 90 1013.7
20260507001619 55 0 0.0 0.0 0.00 0.57 0.00 90 1013.8
20260507001120 55 0 0.0 0.0 0.00 0.57 0.00 90 1013.8
20260507000619 55 0 0.0 0.0 0.00 0.57 0.00 90 1013.8
20260507000120 55 0 0.0 0.0 0.00 0.57 0.00 90 1013.8
20260506235619 55 0 0.0 0.0 0.00 0.57 0.00 89 1013.8
20260506235120 55 303 0.0 0.9 0.00 0.57 0.00 89 1013.8
20260506234621 55 303 0.0 0.9 0.00 0.57 0.00 89 1013.8
20260506234120 55 0 0.0 0.0 0.00 0.57 0.00 89 1013.8
20260506233119 55 302 0.0 0.9 0.00 0.57 0.00 89 1013.9
20260506232620 56 0 0.0 0.0 0.00 0.57 0.00 88 1013.9
20260506232121 56 302 0.0 0.9 0.00 0.57 0.00 88 1013.9
20260506231619 56 302 0.0 0.9 0.00 0.57 0.00 88 1013.9
20260506231119 56 303 0.0 0.9 0.00 0.57 0.00 87 1013.9
20260506230619 56 302 0.9 0.9 0.00 0.57 0.00 87 1014.0
20260506230121 56 302 0.9 2.6 0.00 0.57 0.00 87 1014.0
20260506225620 56 270 1.7 1.7 0.00 0.57 0.00 86 1014.0
20260506225120 56 258 1.7 3.5 0.00 0.57 0.00 86 1013.9
20260506224620 56 253 1.7 3.5 0.00 0.57 0.00 86 1013.9
20260506224120 56 244 1.7 3.5 0.00 0.57 0.00 87 1014.0
20260506223620 56 248 1.7 4.3 0.00 0.57 0.00 87 1013.9
20260506223120 56 251 1.7 5.2 0.00 0.57 0.00 88 1013.9
20260506222620 55 254 1.7 6.1 0.00 0.57 0.00 88 1013.9
20260506222120 55 254 2.6 3.5 0.00 0.57 0.00 89 1013.9
20260506221620 55 255 1.7 4.3 0.00 0.57 0.00 89 1013.8
20260506221119 55 256 1.7 5.2 0.00 0.57 0.00 89 1013.9
20260506220620 55 265 1.7 3.5 0.00 0.57 0.00 90 1013.9
20260506220123 55 258 1.7 3.5 0.00 0.57 0.00 90 1013.9
20260506215619 55 243 1.7 2.6 0.00 0.57 0.57 90 1014.0
20260506215120 55 250 1.7 3.5 0.00 0.57 0.57 90 1014.0
20260506214620 55 256 1.7 3.5 0.00 0.57 0.57 90 1013.9
20260506214120 55 249 1.7 3.5 0.00 0.57 0.57 90 1013.8
20260506213619 55 265 2.6 4.3 0.00 0.57 0.57 90 1013.9